Weather History for Worcester, MA

Change the Weather History Date:

Sunday, September 9, 2012

  Actual Average Record
Temperature  
Mean Temperature 65 °F 64 °F  
Max Temperature 72 °F 72 °F 90 °F (1915)
Min Temperature 58 °F 55 °F 38 °F (1938)
Degree Days  
Heating Degree Days 0 3  
Month to date heating degree days 0 22  
Since 1 July heating degree days 2 61  
Cooling Degree Days 0 2  
Month to date cooling degree days 37 22  
Year to date cooling degree days 668 448  
Growing Degree Days 14 (Base 50)    
Moisture  
Dew Point 53 °F    
Average Humidity 71    
Maximum Humidity 93    
Minimum Humidity 49    
Precipitation  
Precipitation T in 0.12 in 1.97 in (1934)
Month to date precipitation 1.96 1.02  
Year to date precipitation 30.58 32.38  
Sea Level Pressure  
Sea Level Pressure 29.82 in    
Wind  
Wind Speed 6 mph (NW)    
Max Wind Speed 14 mph    
Max Gust Speed 21 mph    
Visibility 10 miles    
Events Rain    
T = Trace of Precipitation, MM = Missing Value Source: NWS Daily Summary

Daily Weather History Graph

Daily Weather History Graph

Search for Another Location

Airport:

Trip Planner

Search our weather history database for the weather conditions in past years. The results will help you decide how hot, cold, wet, or windy it might be!

Date:

Astronomy

Sep. 09, 2012 Rise Set
Actual Time 6:21 AM EDT 7:06 PM EDT
Civil Twilight 5:53 AM EDT 7:35 PM EDT
Nautical Twilight 5:19 AM EDT 8:08 PM EDT
Astronomical Twilight 4:44 AM EDT 8:43 PM EDT
Moon No Moon Rise 2:54 PM EDT (9/9)
Length of Visible Light 13h 41m
Length of Day
12h 45m
Last Quarter, 39% of the Moon is Illuminated
Sep 9
Last Quarter
Sep 15
New
Sep 22
First Quarter
Sep 29
Full
Oct 8
Last Quarter

Hourly Weather History & Observations

Time (EDT) Temp. Dew Point Humidity Pressure Visibility Wind Dir Wind Speed Gust Speed Precip Events Conditions
12:54 AM 61.0 °F 57.9 °F 90% 29.74 in 10.0 mi WNW 12.7 mph - 0.00 in Rain Light Rain
1:54 AM 60.1 °F 57.0 °F 90% 29.74 in 10.0 mi West 6.9 mph - 0.00 in   Mostly Cloudy
2:54 AM 60.1 °F 57.9 °F 93% 29.76 in 10.0 mi West 6.9 mph - 0.00 in Rain Light Rain
3:54 AM 59.0 °F 57.0 °F 93% 29.77 in 10.0 mi West 8.1 mph - 0.00 in Rain Light Rain
4:54 AM 59.0 °F 57.0 °F 93% 29.77 in 10.0 mi West 9.2 mph - 0.00 in   Clear
5:54 AM 57.9 °F 55.9 °F 93% 29.80 in 10.0 mi West 4.6 mph - N/A   Partly Cloudy
6:54 AM 57.9 °F 55.0 °F 90% 29.82 in 10.0 mi West 6.9 mph - N/A   Mostly Cloudy
7:54 AM 59.0 °F 54.0 °F 83% 29.82 in 10.0 mi NW 5.8 mph 16.1 mph 0.00 in   Clear
8:54 AM 59.0 °F 53.1 °F 81% 29.84 in 10.0 mi NNW 3.5 mph - N/A   Clear
9:54 AM 60.1 °F 52.0 °F 75% 29.86 in 10.0 mi NW 5.8 mph - N/A   Clear
10:54 AM 61.0 °F 51.1 °F 70% 29.86 in 10.0 mi NW 6.9 mph - N/A   Clear
11:54 AM 63.0 °F 52.0 °F 67% 29.87 in 10.0 mi NW 5.8 mph - N/A   Clear
12:54 PM 66.0 °F 52.0 °F 60% 29.86 in 10.0 mi NNW 6.9 mph - N/A   Clear
1:54 PM 69.1 °F 50.0 °F 51% 29.84 in 10.0 mi NW 6.9 mph - N/A   Clear
2:54 PM 70.0 °F 52.0 °F 53% 29.82 in 10.0 mi NNW 8.1 mph - N/A   Clear
3:54 PM 71.1 °F 52.0 °F 51% 29.82 in 10.0 mi NW 6.9 mph - N/A   Scattered Clouds
4:54 PM 70.0 °F 53.1 °F 55% 29.81 in 10.0 mi WNW 4.6 mph - N/A   Clear
5:54 PM 70.0 °F 53.1 °F 55% 29.82 in 10.0 mi NW 6.9 mph - N/A   Scattered Clouds
6:54 PM 64.9 °F 54.0 °F 68% 29.83 in 10.0 mi NW 5.8 mph - N/A   Clear
7:54 PM 62.1 °F 54.0 °F 75% 29.85 in 10.0 mi NNW 4.6 mph - N/A   Clear
8:54 PM 62.1 °F 52.0 °F 70% 29.86 in 10.0 mi NW 4.6 mph - N/A   Clear
9:54 PM 62.1 °F 51.1 °F 67% 29.86 in 10.0 mi NNW 4.6 mph - N/A   Clear
10:54 PM 63.0 °F 50.0 °F 63% 29.86 in 10.0 mi NNW 9.2 mph - N/A   Clear
11:54 PM 62.1 °F 48.9 °F 62% 29.87 in 10.0 mi NNW 8.1 mph - N/A   Clear